Location: Monroe
(41.9160°N, 83.3980°W)
Time: 10:56:43
(UTC-05:00)

Amateur Radio Satellites - All Passes

Search period start: 23 November 2014 10:26
Search period end: 24 November 2014 10:26
Location: Monroe, 41.9160°N, 83.3980°W

Satellite Date Start Highest point End Downlink Frequencies (MHz)
Time Altitude Azimuth
DUCHIFAT 1 23 Nov 10:28:21 10:32:34 65° 74° (ENE) 10:36:48 145.980
UNISAT 6 23 Nov 10:32:16 10:36:33 79° 257° (WSW) 10:40:50 437.425
SHINDAISAT 23 Nov 10:36:40 10:37:04 11° 115° (ESE) 10:37:28 437.305
AAUSAT CUBESAT 2 23 Nov 10:38:22 10:42:09 32° 290° (WNW) 10:45:54 437.432
VELOX 1 23 Nov 10:39:03 10:43:05 33° 97° (E) 10:47:04 145.980
CANX-2 23 Nov 10:39:21 10:42:31 21° 293° (WNW) 10:45:42 2200.000
DOVE 4 23 Nov 10:43:14 10:47:03 37° 289° (WNW) 10:50:56 437.250
NANOSAT C BR1 23 Nov 10:47:13 10:51:28 77° 257° (WSW) 10:55:45 145.865
ZACube-1 23 Nov 10:48:20 10:52:32 70° 102° (ESE) 10:56:48 437.345
COMPASS 1 23 Nov 10:51:56 10:55:10 21° 293° (WNW) 10:58:23 437.405
HUMSAT D 23 Nov 10:54:52 10:58:55 49° 100° (E) 11:02:59 437.325/437.525
QB50P1 23 Nov 10:56:45 11:00:57 59° 259° (W) 11:05:11 145.935-145.965
DELFI C3 23 Nov 10:58:59 11:02:54 42° 288° (WNW) 11:06:48 145.870
ANTELSAT 23 Nov 11:01:04 11:05:02 37° 262° (W) 11:09:01 437.575/2403.000
AISAT 23 Nov 11:03:06 11:07:31 63° 101° (ESE) 11:11:53 437.250
50 SAT 23 Nov 11:04:18 11:08:17 52° 100° (E) 11:12:15 437.505
HO-68 23 Nov 11:06:06 11:12:11 31° 300° (WNW) 11:18:14 435.675
GOMX 1 23 Nov 11:12:24 11:14:44 15° 296° (WNW) 11:17:04 467.674
POPSAT HIP 1 23 Nov 11:21:38 11:25:27 31° 263° (W) 11:29:17 437.405
GONETS M04 23 Nov 11:23:30 11:29:04 18° 300° (WNW) 11:34:41
BUGSAT 1 23 Nov 11:23:52 11:27:47 35° 262° (W) 11:31:43 437.445
FUNcube-1 23 Nov 11:24:27 11:28:28 46° 287° (WNW) 11:32:33 145.935
UKube-1 23 Nov 11:27:02 11:30:32 24° 293° (WNW) 11:34:00 .
CUBEBUG 1 23 Nov 11:27:42 11:31:51 41° 98° (E) 11:35:56 437.445
TISAT 1 23 Nov 11:30:45 11:31:19 10° 89° (E) 11:31:53 437.305
SO-50 23 Nov 11:31:13 11:32:25 11° 31° (NNE) 11:33:37 436.795
CUBEBUG 2 23 Nov 11:36:38 11:40:07 26° 291° (WNW) 11:43:39 437.445
Oscar 11 23 Nov 11:41:30 11:44:03 16° 296° (WNW) 11:46:35 145.826/435.025
CINEMA 3 23 Nov 11:42:59 11:45:25 15° 295° (WNW) 11:47:52 145.822/145.860
UWE-3 23 Nov 11:43:18 11:46:46 25° 291° (WNW) 11:50:16 435.000/436.395/437.385
POLYITAN 1 23 Nov 11:55:03 11:57:24 14° 268° (W) 11:59:46 437.675
QB50P2 23 Nov 11:58:38 12:00:43 13° 269° (W) 12:02:48 145.880/145.840
DX 1 23 Nov 12:01:14 12:02:42 12° 300° (WNW) 12:04:10 434.975-435.025
ESTCUBE 1 23 Nov 12:02:55 12:07:29 79° 285° (WNW) 12:12:00 437.505/2401.250
DUCHIFAT 1 23 Nov 12:07:45 12:08:52 11° 270° (W) 12:09:59 145.980
VELOX 1 23 Nov 12:16:00 12:19:30 23° 294° (WNW) 12:22:58 145.980
ZACube-1 23 Nov 12:27:07 12:28:23 11° 298° (WNW) 12:29:38 437.345
HUMSAT D 23 Nov 12:32:00 12:34:21 15° 296° (WNW) 12:36:42 437.325/437.525
50 SAT 23 Nov 12:41:10 12:43:11 14° 296° (WNW) 12:45:12 437.505
AISAT 23 Nov 12:41:28 12:43:38 14° 298° (WNW) 12:45:47 437.250
SWISSCUBE 23 Nov 12:41:43 12:42:58 11° 89° (E) 12:44:13 437.505
Oscar 19 23 Nov 12:50:21 12:55:17 52° 71° (ENE) 13:00:15 437.125/150
TISAT 1 23 Nov 13:03:25 13:07:37 67° 286° (WNW) 13:11:46 437.305
SPROUT 23 Nov 13:03:49 13:08:06 76° 285° (WNW) 13:12:22 437.525
CUBEBUG 1 23 Nov 13:04:50 13:07:55 19° 295° (WNW) 13:10:59 437.445
SO-50 23 Nov 13:09:22 13:14:07 50° 52° (NE) 13:18:52 436.795
BEESAT 23 Nov 13:11:24 13:15:04 21° 94° (E) 13:18:43 436.000
AUBIESAT-1 23 Nov 13:20:00 13:24:25 32° 101° (E) 13:28:45 437.475
M-CUBED/EXP-1 PRIME 23 Nov 13:22:59 13:27:35 38° 102° (ESE) 13:32:06 437.505
ITAMSAT 1 23 Nov 13:36:39 13:41:44 56° 72° (ENE) 13:46:50 435.822/435.867
YUBILEINY 23 Nov 13:42:24 13:50:44 46° 74° (ENE) 13:58:58 435.215
Gurwin Techsat 1B 23 Nov 13:51:47 13:56:47 44° 70° (ENE) 14:01:48 435.225
ITUPSAT 1 23 Nov 14:04:25 14:09:15 72° 102° (ESE) 14:14:01 437.325
CUSAT 1 23 Nov 14:08:16 14:10:57 38° 282° (WNW) 14:13:26 437.405
SWISSCUBE 23 Nov 14:16:35 14:21:24 79° 285° (WNW) 14:26:10 437.505
DANDE 23 Nov 14:21:18 14:24:00 32° 282° (WNW) 14:26:26 436.750
KKS-1 23 Nov 14:25:18 14:28:58 25° 95° (E) 14:32:37 437.445
Oscar 19 23 Nov 14:31:21 14:34:55 19° 268° (W) 14:38:31 437.125/150
AO-7 23 Nov 14:35:12 14:42:24 35° 58° (ENE) 14:49:38 29.400- 29.500
HORYU 2 23 Nov 14:38:58 14:43:16 53° 72° (ENE) 14:47:35 437.375
BEESAT 23 Nov 14:48:34 14:53:04 41° 290° (WNW) 14:57:33 436.000
SO-50 23 Nov 14:50:38 14:54:21 22° 249° (WSW) 14:58:04 436.795
AUBIESAT-1 23 Nov 14:54:59 14:59:18 32° 297° (WNW) 15:03:36 437.475
M-CUBED/EXP-1 PRIME 23 Nov 14:58:16 15:02:26 28° 298° (WNW) 15:06:34 437.505
ITAMSAT 1 23 Nov 15:18:01 15:21:34 18° 268° (W) 15:25:07 435.822/435.867
STARS 23 Nov 15:26:39 15:31:04 79° 103° (ESE) 15:35:27 437.465
Gurwin Techsat 1B 23 Nov 15:32:41 15:36:55 24° 266° (W) 15:41:10 435.225
MaSat-1 23 Nov 15:34:39 15:37:06 22° 111° (ESE) 15:39:24 437.345
YUBILEINY 23 Nov 15:39:31 15:47:20 39° 274° (W) 15:55:07 435.215
PHONESAT 2.4 23 Nov 15:42:09 15:44:35 17° 149° (SSE) 15:47:02 2401.200-2431.200
ITUPSAT 1 23 Nov 15:44:06 15:46:32 14° 300° (WNW) 15:48:58 437.325
JAS-2 23 Nov 15:49:44 15:56:15 32° 62° (ENE) 16:02:58 435.910
RS-15 23 Nov 15:52:00 16:01:29 36° 106° (ESE) 16:10:54 29.354- 29.394
KKS-1 23 Nov 16:01:43 16:05:37 31° 291° (WNW) 16:09:30 437.445
VERMONT LUNAR 23 Nov 16:03:57 16:07:06 28° 156° (SSE) 16:10:15 437.305
O/OREOS (USA 219) 23 Nov 16:12:51 16:17:05 40° 62° (ENE) 16:21:18 437.305
HORYU 2 23 Nov 16:17:50 16:20:16 14° 269° (W) 16:22:42 437.375
AO-7 23 Nov 16:26:42 16:34:47 58° 257° (WSW) 16:42:59 29.400- 29.500
CUTE-I 23 Nov 16:37:56 16:41:13 17° 60° (ENE) 16:44:30 437.470
MOZHAYETS 4 23 Nov 16:46:06 16:49:50 23° 94° (E) 16:53:32
STARS 23 Nov 17:05:43 17:06:55 11° 300° (WNW) 17:08:06 437.465
MaSat-1 23 Nov 17:09:50 17:11:42 15° 303° (WNW) 17:13:28 437.345
PHONESAT 2.4 23 Nov 17:19:18 17:22:55 50° 165° (SSE) 17:26:32 2401.200-2431.200
Cubesat XI-IV 23 Nov 17:33:20 17:38:30 50° 70° (ENE) 17:43:40 437.490
JAS-2 23 Nov 17:33:22 17:40:46 60° 261° (W) 17:48:33 435.910
VERMONT LUNAR 23 Nov 17:41:42 17:45:18 66° 172° (S) 17:48:55 437.305
O/OREOS (USA 219) 23 Nov 17:52:59 17:56:10 19° 259° (W) 17:59:21 437.305
RS-15 23 Nov 18:02:12 18:13:05 67° 308° (NW) 18:24:02 29.354- 29.394
CUTE-I 23 Nov 18:15:20 18:20:41 71° 257° (WSW) 18:26:04 437.470
CUBESAT XI-V 23 Nov 18:20:15 18:23:13 17° 91° (E) 18:26:09 437.345
MOZHAYETS 4 23 Nov 18:22:53 18:27:08 36° 290° (WNW) 18:31:22
PRISM 23 Nov 18:57:24 19:01:40 75° 285° (WNW) 19:05:52 437.425
PHONESAT 2.4 23 Nov 18:57:53 19:01:36 72° 182° (S) 19:05:18 2401.200-2431.200
Cubesat XI-IV 23 Nov 19:14:49 19:18:50 21° 267° (W) 19:22:53 437.490
VERMONT LUNAR 23 Nov 19:20:07 19:23:43 62° 189° (S) 19:27:18 437.305
BRITE-PL 23 Nov 19:20:58 19:23:19 14° 63° (ENE) 19:25:37 437.365/2234.400
STRAND 1 23 Nov 19:22:24 19:27:30 65° 102° (ESE) 19:32:33 437.568
GONETS M04 23 Nov 19:32:00 19:40:36 52° 75° (ENE) 19:49:04
SEEDS 23 Nov 19:34:26 19:36:22 13° 63° (ENE) 19:38:18 437.485
HO-68 23 Nov 19:46:39 19:53:19 43° 64° (ENE) 20:00:00 435.675
AIST 1 23 Nov 19:50:17 19:54:11 32° 90° (E) 19:58:06
AAUSAT CUBESAT 2 23 Nov 19:55:52 19:58:30 17° 65° (ENE) 20:01:09 437.432
CUBESAT XI-V 23 Nov 19:56:25 20:00:57 50° 288° (WNW) 20:05:26 437.345
CANX-2 23 Nov 19:56:47 20:00:22 28° 69° (ENE) 20:03:58 2200.000
COMPASS 1 23 Nov 20:08:23 20:11:48 25° 68° (ENE) 20:15:14 437.405
DOVE 4 23 Nov 20:12:33 20:16:06 22° 68° (ENE) 20:19:30 437.250
DELFI C3 23 Nov 20:15:46 20:17:09 12° 62° (ENE) 20:18:33 145.870
RS-15 23 Nov 20:19:18 20:28:03 26° 338° (NNW) 20:36:57 29.354- 29.394
PCSat 23 Nov 20:23:26 20:28:41 55° 114° (ESE) 20:33:59 145.827
CUTE 1.7 & AOD 2 23 Nov 20:31:08 20:35:17 61° 74° (ENE) 20:39:28 437.475
PHONESAT 2.4 23 Nov 20:36:43 20:40:13 40° 199° (SSW) 20:43:43 2401.200-2431.200
GOMX 1 23 Nov 20:41:10 20:45:57 58° 74° (ENE) 20:50:25 467.674
BEESAT 3 23 Nov 20:44:27 20:48:10 34° 115° (ESE) 20:51:57 437.485
UKube-1 23 Nov 20:46:21 20:50:07 29° 68° (ENE) 20:53:54 .
FUNcube-1 23 Nov 20:47:00 20:49:05 14° 64° (ENE) 20:51:09 145.935
BRITE-PL 23 Nov 20:56:13 21:01:21 75° 258° (WSW) 21:06:07 437.365/2234.400
BEESAT 2 23 Nov 20:57:31 21:01:25 43° 117° (ESE) 21:05:23 435.950
VERMONT LUNAR 23 Nov 20:58:52 21:01:53 24° 206° (SSW) 21:04:52 437.305
CUBEBUG 2 23 Nov 20:59:15 21:02:44 25° 68° (ENE) 21:06:10 437.445
Oscar 11 23 Nov 20:59:19 21:03:22 42° 72° (ENE) 21:07:26 145.826/435.025
STRAND 1 23 Nov 21:02:58 21:06:08 17° 299° (WNW) 21:09:18 437.568
UWE-3 23 Nov 21:04:58 21:08:25 25° 68° (ENE) 21:11:50 435.000/436.395/437.385
CINEMA 3 23 Nov 21:06:54 21:11:10 47° 73° (ENE) 21:15:17 145.822/145.860
SEEDS 23 Nov 21:07:35 21:11:42 59° 260° (W) 21:15:52 437.485
DX 1 23 Nov 21:18:36 21:22:57 67° 74° (ENE) 21:27:19 434.975-435.025
AIST 2 23 Nov 21:20:27 21:24:21 37° 116° (ESE) 21:28:19 435.215
AIST 1 23 Nov 21:28:27 21:31:53 22° 288° (WNW) 21:35:22
GONETS M04 23 Nov 21:29:21 21:37:04 36° 275° (W) 21:44:45
AAUSAT CUBESAT 2 23 Nov 21:29:54 21:33:51 43° 261° (W) 21:37:51 437.432
ESTCUBE 1 23 Nov 21:29:54 21:31:15 11° 60° (ENE) 21:32:35 437.505/2401.250
CANX-2 23 Nov 21:32:48 21:36:17 25° 265° (W) 21:39:47 2200.000
HO-68 23 Nov 21:34:27 21:41:02 38° 262° (W) 21:47:40 435.675
VELOX 1 23 Nov 21:37:28 21:41:28 33° 69° (ENE) 21:45:29 145.980
COMPASS 1 23 Nov 21:43:54 21:47:27 27° 265° (W) 21:51:02 437.405
ZACube-1 23 Nov 21:45:02 21:49:11 57° 74° (ENE) 21:53:18 437.345
HUMSAT D 23 Nov 21:47:51 21:51:40 37° 71° (ENE) 21:55:28 437.325/437.525
DELFI C3 23 Nov 21:47:54 21:51:56 64° 259° (W) 21:56:00 145.870
DOVE 4 23 Nov 21:49:21 21:53:42 37° 262° (W) 21:57:50 437.250
50 SAT 23 Nov 21:53:54 21:57:36 35° 71° (ENE) 22:01:17 437.505
AISAT 23 Nov 22:01:37 22:06:03 61° 73° (ENE) 22:10:28 437.250
PCSat 23 Nov 22:08:01 22:12:26 25° 313° (NW) 22:16:53 145.827
CUTE 1.7 & AOD 2 23 Nov 22:10:18 22:11:37 11° 271° (W) 22:12:57 437.475
TIGRISAT 23 Nov 22:13:05 22:15:40 15° 92° (E) 22:18:17 435.000
PHONESAT 2.4 23 Nov 22:17:00 22:18:25 12° 214° (SW) 22:19:51 2401.200-2431.200
FUNcube-1 23 Nov 22:20:51 22:25:00 55° 260° (W) 22:29:07 145.935
GOMX 1 23 Nov 22:21:38 22:24:20 15° 268° (W) 22:26:57 467.674
UKube-1 23 Nov 22:22:38 22:26:16 25° 264° (W) 22:29:55 .
BEESAT 3 23 Nov 22:23:00 22:26:28 25° 313° (NW) 22:29:59 437.485
CUBEBUG 1 23 Nov 22:24:26 22:28:31 37° 70° (ENE) 22:32:37 437.445
UNISAT 6 23 Nov 22:24:40 22:28:01 21° 94° (E) 22:31:25 437.425
NANOSAT C BR1 23 Nov 22:33:35 22:36:20 17° 93° (E) 22:39:04 145.865
CUBEBUG 2 23 Nov 22:35:38 22:39:22 28° 264° (W) 22:43:02 437.445
BEESAT 2 23 Nov 22:36:39 22:39:54 22° 315° (NW) 22:43:11 435.950
Oscar 11 23 Nov 22:36:54 22:39:44 17° 268° (W) 22:42:35 145.826/435.025
RS-15 23 Nov 22:37:15 22:45:36 23° 14° (NNE) 22:54:08 29.354- 29.394
UWE-3 23 Nov 22:41:12 22:44:53 28° 264° (W) 22:48:32 435.000/436.395/437.385
QB50P1 23 Nov 22:42:43 22:45:58 21° 94° (E) 22:49:11 145.935-145.965
CINEMA 3 23 Nov 22:45:59 22:48:36 15° 268° (W) 22:51:11 145.822/145.860
ANTELSAT 23 Nov 22:52:28 22:56:40 41° 99° (E) 23:00:56 437.575/2403.000
DX 1 23 Nov 22:58:18 22:59:38 11° 270° (W) 23:00:58 434.975-435.025
AIST 2 23 Nov 22:59:33 23:03:05 25° 314° (NW) 23:06:41 435.215
ESTCUBE 1 23 Nov 23:02:53 23:07:26 83° 257° (WSW) 23:12:02 437.505/2401.250
CUSAT 1 23 Nov 23:04:01 23:05:01 11° 71° (ENE) 23:06:04 437.405
BUGSAT 1 23 Nov 23:06:20 23:09:59 31° 97° (E) 23:13:35 437.445
POPSAT HIP 1 23 Nov 23:06:38 23:10:36 38° 98° (E) 23:14:32 437.405
VELOX 1 23 Nov 23:14:29 23:18:06 24° 265° (W) 23:21:43 145.980
DANDE 23 Nov 23:18:06 23:19:46 12° 73° (ENE) 23:21:35 436.750
ZACube-1 23 Nov 23:24:20 23:25:55 12° 270° (W) 23:27:31 437.345
HUMSAT D 23 Nov 23:24:46 23:27:37 18° 267° (W) 23:30:28 437.325/437.525
50 SAT 23 Nov 23:30:16 23:33:02 18° 267° (W) 23:35:49 437.505
ISS 23 Nov 23:36:15 23:37:49 13° 130° (SE) 23:39:24 145.825
ITUPSAT 1 23 Nov 23:38:17 23:39:19 11° 58° (ENE) 23:40:21 437.325
POLYITAN 1 23 Nov 23:38:27 23:42:42 89° 282° (WNW) 23:46:55 437.675
AISAT 23 Nov 23:41:00 23:43:04 13° 269° (W) 23:45:08 437.250
QB50P2 23 Nov 23:41:30 23:45:45 82° 284° (WNW) 23:49:58 145.880/145.840
SWISSCUBE 23 Nov 23:48:22 23:51:04 15° 61° (ENE) 23:53:45 437.505
TIGRISAT 23 Nov 23:48:26 23:52:41 50° 287° (WNW) 23:57:01 435.000
DUCHIFAT 1 23 Nov 23:49:15 23:53:27 68° 285° (WNW) 23:57:37 145.980
TISAT 1 23 Nov 23:56:13 00:00:30 86° 256° (WSW) 00:04:48 437.305
SPROUT 23 Nov 23:58:15 00:02:35 86° 76° (ENE) 00:06:56 437.525
UNISAT 6 24 Nov 00:00:51 00:04:55 37° 289° (WNW) 00:09:03 437.425
CUBEBUG 1 24 Nov 00:01:39 00:05:00 21° 266° (W) 00:08:23 437.445
NANOSAT C BR1 24 Nov 00:08:26 00:12:25 41° 289° (WNW) 00:16:22 145.865
AUBIESAT-1 24 Nov 00:10:04 00:13:49 40° 65° (ENE) 00:17:55 437.475
M-CUBED/EXP-1 PRIME 24 Nov 00:13:27 00:17:16 47° 66° (ENE) 00:21:29 437.505
QB50P1 24 Nov 00:18:09 00:21:55 32° 290° (WNW) 00:25:41 145.935-145.965
BEESAT 24 Nov 00:18:28 00:22:26 27° 66° (ENE) 00:26:25 436.000
ANTELSAT 24 Nov 00:30:02 00:33:13 20° 294° (WNW) 00:36:26 437.575/2403.000
BUGSAT 1 24 Nov 00:42:11 00:45:19 21° 293° (WNW) 00:48:25 437.445
POPSAT HIP 1 24 Nov 00:43:17 00:46:14 19° 295° (WNW) 00:49:10 437.405
CUSAT 1 24 Nov 00:43:48 00:48:11 81° 261° (W) 00:54:08 437.405
RS-15 24 Nov 00:50:37 01:01:27 52° 46° (NE) 01:12:41 29.354- 29.394
DANDE 24 Nov 00:59:02 01:03:13 68° 261° (W) 01:08:56 436.750
Oscar 19 24 Nov 01:02:35 01:06:01 18° 92° (E) 01:09:27 437.125/150
ISS 24 Nov 01:10:47 01:14:04 75° 326° (NNW) 01:17:21 145.825
ITUPSAT 1 24 Nov 01:11:36 01:16:25 86° 75° (ENE) 01:21:16 437.325
MaSat-1 24 Nov 01:12:52 01:15:02 35° 61° (ENE) 01:17:15 437.345
SWISSCUBE 24 Nov 01:23:36 01:28:22 66° 258° (WSW) 01:33:11 437.505
KKS-1 24 Nov 01:24:17 01:27:54 25° 67° (ENE) 01:31:32 437.445
AUBIESAT-1 24 Nov 01:46:18 01:49:04 18° 264° (W) 01:52:01 437.475
ITAMSAT 1 24 Nov 01:50:11 01:53:49 19° 92° (E) 01:57:27 435.822/435.867
M-CUBED/EXP-1 PRIME 24 Nov 01:50:22 01:52:42 15° 265° (W) 01:55:10 437.505
BEESAT 24 Nov 01:55:47 02:00:08 34° 263° (W) 02:04:31 436.000
Gurwin Techsat 1B 24 Nov 02:08:42 02:12:05 17° 91° (E) 02:15:26 435.225
STARS 24 Nov 02:24:08 02:28:32 72° 75° (ENE) 02:32:56 437.465
Oscar 19 24 Nov 02:40:39 02:45:42 56° 288° (WNW) 02:50:45 437.125/150
YUBILEINY 24 Nov 02:43:24 02:51:49 53° 90° (E) 03:00:14 435.215
ISS 24 Nov 02:48:39 02:51:08 20° 345° (NNW) 02:53:38 145.825
KKS-1 24 Nov 03:00:26 03:04:25 32° 263° (W) 03:08:24 437.445
RS-15 24 Nov 03:03:12 03:13:54 52° 248° (WSW) 03:25:05 29.354- 29.394
SO-50 24 Nov 03:27:05 03:29:14 13° 108° (ESE) 03:31:24 436.795
ITAMSAT 1 24 Nov 03:28:35 03:33:37 53° 289° (WNW) 03:38:37 435.822/435.867
PCSat 24 Nov 03:30:28 03:31:26 10° 33° (NNE) 03:32:23 145.827
Gurwin Techsat 1B 24 Nov 03:47:13 03:52:28 62° 287° (WNW) 03:57:40 435.225
MOZHAYETS 4 24 Nov 03:48:52 03:52:29 23° 66° (ENE) 03:56:07
STARS 24 Nov 04:04:48 04:05:30 10° 271° (W) 04:06:12 437.465
HORYU 2 24 Nov 04:06:40 04:11:09 77° 285° (WNW) 04:15:39 437.375
ISS 24 Nov 04:26:37 04:28:43 16° 6° (N) 04:30:49 145.825
AO-7 24 Nov 04:27:37 04:35:42 50° 101° (E) 04:43:43 29.400- 29.500
YUBILEINY 24 Nov 04:41:03 04:48:54 35° 290° (WNW) 04:56:47 435.215
JAS-2 24 Nov 04:44:41 04:50:11 24° 89° (E) 04:55:12 435.910
STRAND 1 24 Nov 05:02:56 05:05:17 13° 59° (ENE) 05:07:38 437.568
BEESAT 3 24 Nov 05:04:04 05:07:42 27° 47° (NE) 05:11:17 437.485
SO-50 24 Nov 05:04:39 05:09:08 69° 305° (NW) 05:13:48 436.795
PCSat 24 Nov 05:10:59 05:16:14 48° 55° (NE) 05:21:27 145.827
BEESAT 2 24 Nov 05:17:32 05:21:22 33° 49° (NE) 05:25:10 435.950
CUBESAT XI-V 24 Nov 05:24:25 05:27:37 18° 64° (ENE) 05:30:49 437.345
MOZHAYETS 4 24 Nov 05:25:18 05:29:30 36° 263° (W) 05:33:46
AIST 2 24 Nov 05:42:09 05:46:00 30° 48° (NE) 05:49:48 435.215
PRISM 24 Nov 05:48:27 05:52:38 85° 76° (ENE) 05:56:54 437.425
Cubesat XI-IV 24 Nov 05:51:16 05:55:01 19° 92° (E) 05:58:44 437.490
ISS 24 Nov 06:03:02 06:06:05 34° 25° (NNE) 06:09:08 145.825
AO-7 24 Nov 06:20:43 06:28:17 40° 300° (WNW) 06:35:51 29.400- 29.500
O/OREOS (USA 219) 24 Nov 06:25:21 06:29:37 44° 107° (ESE) 06:33:52 437.305
JAS-2 24 Nov 06:28:41 06:35:51 63° 289° (WNW) 06:42:09 435.910
CUTE-I 24 Nov 06:32:20 06:37:25 45° 99° (E) 06:42:28 437.470
STRAND 1 24 Nov 06:38:35 06:43:44 85° 256° (WSW) 06:48:55 437.568
BEESAT 3 24 Nov 06:42:12 06:45:56 32° 245° (WSW) 06:49:38 437.485
SO-50 24 Nov 06:48:29 06:50:36 13° 326° (NW) 06:52:45 436.795
PCSat 24 Nov 06:55:00 06:59:20 25° 252° (WSW) 07:03:39 145.827
BEESAT 2 24 Nov 06:56:03 06:59:33 26° 247° (WSW) 07:03:01 435.950
CUBESAT XI-V 24 Nov 07:00:04 07:04:39 50° 261° (W) 07:09:16 437.345
AIST 2 24 Nov 07:20:50 07:24:35 29° 246° (WSW) 07:28:16 435.215
Cubesat XI-IV 24 Nov 07:30:14 07:35:26 55° 289° (WNW) 07:40:36 437.490
AIST 1 24 Nov 07:34:18 07:38:43 85° 262° (W) 07:43:03
ISS 24 Nov 07:39:42 07:42:44 33° 223° (SW) 07:45:44 145.825
O/OREOS (USA 219) 24 Nov 08:05:55 08:09:13 20° 305° (NW) 08:12:32 437.305
CUTE-I 24 Nov 08:12:59 08:17:13 25° 296° (WNW) 08:21:25 437.470
JAS-2 24 Nov 08:16:28 08:19:16 13° 311° (NW) 08:21:58 435.910
CUTE 1.7 & AOD 2 24 Nov 08:19:11 08:20:01 11° 89° (E) 08:20:50 437.475
GONETS M04 24 Nov 08:33:01 08:41:33 58° 91° (E) 08:50:09
GOMX 1 24 Nov 08:44:18 08:46:23 13° 91° (E) 08:48:28 467.674
SEEDS 24 Nov 08:52:40 08:56:02 22° 94° (E) 08:59:23 437.485
HO-68 24 Nov 09:01:06 09:07:51 42° 99° (E) 09:14:32 435.675
BRITE-PL 24 Nov 09:01:17 09:04:55 29° 96° (E) 09:08:33 437.365/2234.400
DX 1 24 Nov 09:09:29 09:10:38 11° 90° (E) 09:11:47 434.975-435.025
TIGRISAT 24 Nov 09:13:24 09:15:43 15° 63° (ENE) 09:18:02 435.000
AAUSAT CUBESAT 2 24 Nov 09:13:26 09:17:06 28° 96° (E) 09:20:45 437.432
CANX-2 24 Nov 09:17:12 09:21:24 53° 100° (E) 09:25:36 2200.000
UNISAT 6 24 Nov 09:25:03 09:28:07 20° 66° (ENE) 09:31:10 437.425
COMPASS 1 24 Nov 09:26:59 09:31:05 45° 99° (E) 09:35:09 437.405
NANOSAT C BR1 24 Nov 09:27:50 09:30:13 15° 64° (ENE) 09:32:36 145.865
DELFI C3 24 Nov 09:29:29 09:32:20 18° 93° (E) 09:35:10 145.870
ZACube-1 24 Nov 09:36:19 09:37:04 10° 90° (E) 09:37:50 437.345
QB50P1 24 Nov 09:36:48 09:39:44 18° 65° (ENE) 09:42:40 145.935-145.965
DOVE 4 24 Nov 09:47:49 09:51:53 52° 100° (E) 09:56:02 437.250
CUTE 1.7 & AOD 2 24 Nov 09:52:07 09:56:23 68° 285° (WNW) 10:00:39 437.475
ANTELSAT 24 Nov 09:52:31 09:56:28 37° 71° (ENE) 10:00:24 437.575/2403.000
AISAT 24 Nov 09:55:11 09:56:29 11° 90° (E) 09:57:48 437.250
BUGSAT 1 24 Nov 09:57:18 10:00:48 25° 68° (ENE) 10:04:16 437.445
POPSAT HIP 1 24 Nov 10:00:19 10:04:06 32° 70° (ENE) 10:07:53 437.405
UKube-1 24 Nov 10:09:28 10:13:42 50° 100° (E) 10:17:54 .
FUNcube-1 24 Nov 10:09:32 10:13:03 25° 95° (E) 10:16:36 145.935
